Cape Girardeau, MO

6:30 PM CST on November 20, 2019 (GMT -0600)
Cape Girardeau Regional

Weather History for KCGI - October, 2019

Change the Weather History Date:

Wednesday, October 16, 2019

  Actual Average Record
Temperature  
Mean Temperature 52 °F 58 °F  
Max Temperature 60 °F 71 °F 87 °F (2011)
Min Temperature 43 °F 45 °F 32 °F (1991)
Degree Days  
Heating Degree Days 13 8  
Month to date heating degree days 82 103  
Since 1 July heating degree days 82 152  
Cooling Degree Days 0 1  
Month to date cooling degree days 51 23  
Year to date cooling degree days 1775 1445  
Growing Degree Days 2 (Base 50)    
Moisture  
Dew Point 38 °F    
Average Humidity 60    
Maximum Humidity 76    
Minimum Humidity 44    
Precipitation  
Precipitation 0.00 in 0.12 in 2.82 in (2006)
Month to date precipitation 1.77 1.87  
Year to date precipitation 49.44 36.20  
Sea Level Pressure  
Sea Level Pressure 30.05 in    
Wind  
Wind Speed 11 mph (NNW)    
Max Wind Speed 26 mph    
Max Gust Speed 35 mph    
Visibility 10 miles    
Events      
T = Trace of Precipitation, MM = Missing Value Source: NWS Daily Summary

Daily Weather History Graph

Daily Weather History Graph

Search for Another Location

Airport or City:

Astronomy

Oct. 16, 2019 Rise Set
Actual Time 7:06 AM CDT 6:20 PM CDT
Civil Twilight 6:40 AM CDT 6:46 PM CDT
Nautical Twilight 6:10 AM CDT 7:16 PM CDT
Astronomical Twilight 5:40 AM CDT 7:46 PM CDT
Moon 8:16 PM CDT (10/16) 9:35 AM CDT (10/16)
Length of Visible Light 12h 05m
Length of Day
11h 13m
Waning Gibbous, 92% of the Moon is Illuminated
Oct 16
Waning Gibbous
Oct 21
Last Quarter
Oct 27
New
Nov 4
First Quarter
Nov 12
Full

Hourly Weather History & Observations

Time (CDT) Temp. Windchill Dew Point Humidity Pressure Visibility Wind Dir Wind Speed Gust Speed Precip Events Conditions
12:53 AM 60.1 °F - 44.1 °F 55% 29.91 in 10.0 mi NNW 15.0 mph 26.5 mph N/A   Overcast
1:53 AM 55.9 °F - 39.9 °F 55% 29.96 in 10.0 mi North 16.1 mph 34.5 mph N/A   Scattered Clouds
2:53 AM 53.1 °F - 36.0 °F 52% 29.97 in 10.0 mi North 18.4 mph 27.6 mph N/A   Clear
3:53 AM 50.0 °F - 34.0 °F 54% 29.98 in 10.0 mi NNW 12.7 mph - N/A   Clear
4:53 AM 48.9 °F - 35.1 °F 59% 30.00 in 10.0 mi NNW 10.4 mph - N/A   Clear
5:53 AM 46.9 °F - 35.1 °F 63% 30.01 in 10.0 mi NW 9.2 mph - N/A   Clear
6:53 AM 45.0 °F 41.2 °F 35.1 °F 68% 30.03 in 10.0 mi NW 6.9 mph - N/A   Clear
7:53 AM 46.0 °F 41.9 °F 36.0 °F 68% 30.05 in 10.0 mi NW 8.1 mph - N/A   Clear
8:53 AM 48.9 °F - 37.9 °F 66% 30.08 in 10.0 mi NNW 11.5 mph - N/A   Clear
9:53 AM 52.0 °F - 37.9 °F 59% 30.09 in 10.0 mi North 12.7 mph 23.0 mph N/A   Clear
10:53 AM 54.0 °F - 39.0 °F 57% 30.08 in 10.0 mi NNW 16.1 mph 24.2 mph N/A   Clear
11:53 AM 57.0 °F - 39.0 °F 51% 30.08 in 10.0 mi North 12.7 mph - N/A   Clear
12:53 PM 57.0 °F - 37.9 °F 49% 30.07 in 10.0 mi North 15.0 mph 25.3 mph N/A   Clear
1:53 PM 59.0 °F - 37.9 °F 46% 30.06 in 10.0 mi NNW 12.7 mph 20.7 mph N/A   Clear
2:53 PM 59.0 °F - 37.9 °F 46% 30.07 in 10.0 mi North 17.3 mph 21.9 mph N/A   Clear
4:53 PM 57.9 °F - 39.0 °F 49% 30.08 in 10.0 mi North 13.8 mph - N/A   Clear
5:53 PM 55.0 °F - 39.0 °F 55% 30.09 in 10.0 mi North 12.7 mph - N/A   Clear
6:53 PM 51.1 °F - 39.0 °F 63% 30.10 in 10.0 mi NNE 8.1 mph - N/A   Clear
7:53 PM 48.9 °F - 39.0 °F 69% 30.11 in 10.0 mi NNE 6.9 mph - N/A   Clear
8:53 PM 46.9 °F - 37.9 °F 71% 30.09 in 10.0 mi NNE 4.6 mph - N/A   Clear
9:53 PM 46.9 °F - 37.9 °F 71% 30.10 in 10.0 mi Calm Calm - N/A   Clear
10:53 PM 45.0 °F 42.6 °F 37.9 °F 76% 30.10 in 10.0 mi NNW 4.6 mph - N/A   Clear
11:53 PM 44.1 °F 40.1 °F 37.0 °F 76% 30.10 in 10.0 mi North 6.9 mph - N/A   Clear